This is the latest recevied weather packets stored in our database for station/object EW1958. If no packets are shown the sender has not sent any weather packets the latest 10 day(s).
| Time | Temp. | Humidity | Pressure | Rain* | Wind** | Luminosity | Snow |
|---|---|---|---|---|---|---|---|
| 1777587000 | 23.33° C | 52% | 1020 hPa | 0 mm | - | - | - |
| 1777586699 | 23.33° C | 54% | 1020 hPa | 0 mm | - | - | - |
| 1777586394 | 23.33° C | 52% | 1020 hPa | 0 mm | - | - | - |
| 1777586094 | 23.89° C | 51% | 1020.1 hPa | 0 mm | - | - | - |
| 1777585793 | 23.89° C | 47% | 1020 hPa | 0 mm | - | - | - |
| 1777585493 | 23.89° C | 51% | 1020.2 hPa | 0 mm | - | - | - |
| 1777585190 | 23.89° C | 50% | 1020.2 hPa | 0 mm | - | - | - |
| 1777585017 | 23.89° C | 51% | 1020.2 hPa | 0 mm | - | - | - |
| 1777584720 | 23.89° C | 52% | 1020.2 hPa | 0 mm | - | - | - |
| 1777584292 | 23.89° C | 54% | 1020.3 hPa | 0 mm | - | - | - |
| 1777583998 | 23.33° C | 52% | 1020.4 hPa | 0 mm | - | - | - |
| 1777583399 | 23.33° C | 53% | 1020.5 hPa | 0 mm | - | - | - |
| 1777582646 | 22.22° C | 54% | 1020.6 hPa | 0 mm | - | - | - |
| 1777582314 | 22.22° C | 54% | 1020.7 hPa | 0 mm | - | - | - |
| 1777581884 | 22.22° C | 55% | 1020.7 hPa | 0 mm | - | - | - |
| 1777581586 | 22.78° C | 51% | 1020.7 hPa | 0 mm | - | - | - |
| 1777580987 | 23.33° C | 52% | 1020.8 hPa | 0 mm | - | - | - |
| 1777580808 | 23.33° C | 53% | 1020.9 hPa | 0 mm | - | - | - |
| 1777580378 | 23.33° C | 49% | 1021 hPa | 0 mm | - | - | - |
| 1777580237 | 23.33° C | 52% | 1021 hPa | 0 mm | - | - | - |
| 1777579776 | 22.78° C | 55% | 1021 hPa | 0 mm | - | - | - |
| 1777579475 | 22.78° C | 55% | 1021.1 hPa | 0 mm | - | - | - |
| 1777579328 | 22.22° C | 54% | 1021.3 hPa | 0 mm | - | - | - |
| 1777578873 | 22.22° C | 57% | 1021.4 hPa | 0 mm | - | - | - |
| 1777578573 | 22.22° C | 55% | 1021.4 hPa | 0 mm | - | - | - |
* Rain latest hour (hover to see other rain measurements)
** Current wind speed in m/s (hover to see current wind gust speed)